When you browse on this site, cookies collect data to enhance your experience and personalize the content and advertising you see.
Visit our Privacy Policy to learn more. By continuing to use the site, you agree to this use of cookies and data.
  • In United Kingdom
  • List of Countries
  • For 7 days
  • Water Temperature
  • Satellite Maps
  • Weather Map
  • Weather Widgets
  • user-avatar
    Login

    Hourly Weather Ryabinka

    Today, 19 February, Tuesday

    Time Temperature Precipitation Wind Pressure Humidity
    00:00 -18°C° 0 mm 6 mps 748 mmHg 79%
    01:00 -18°C° 0 mm 6 mps 749 mmHg 79%
    02:00 -18°C° 0 mm 5 mps 749 mmHg 80%
    03:00 -18°C° 0 mm 5 mps 749 mmHg 81%
    04:00 -19°C° 0 mm 5 mps 750 mmHg 82%
    05:00 -18°C° 0 mm 4 mps 750 mmHg 84%
    06:00 -19°C° 0 mm 4 mps 751 mmHg 86%
    07:00 -17°C° 0 mm 3 mps 751 mmHg 86%
    08:00 -17°C° 0 mm 3 mps 752 mmHg 87%
    09:00 -17°C° 0 mm 3 mps 751 mmHg 86%
    10:00 -15°C° 0 mm 2 mps 751 mmHg 82%
    11:00 -13°C° 0 mm 2 mps 751 mmHg 77%
    12:00 -10°C° 0 mm 1 mps 751 mmHg 72%
    13:00 -10°C° 0 mm 2 mps 750 mmHg 73%
    14:00 -10°C° 0 mm 2 mps 749 mmHg 74%
    15:00 -11°C° 0 mm 4 mps 748 mmHg 73%
    16:00 -11°C° 0.1 mm 4 mps 748 mmHg 77%
    17:00 -11°C° 0.1 mm 4 mps 747 mmHg 81%
    18:00 -11°C° 0.1 mm 4 mps 746 mmHg 86%
    19:00 -10°C° 0.1 mm 3 mps 746 mmHg 88%
    20:00 -9°C° 0.1 mm 3 mps 746 mmHg 90%
    21:00 -7°C° 0.1 mm 2 mps 746 mmHg 92%
    22:00 -7°C° 0.1 mm 2 mps 745 mmHg 93%
    23:00 -6°C° 0.1 mm 2 mps 745 mmHg 94%

    Tomorrow, 20 February, Wednesday

    Time Temperature Precipitation Wind Pressure Humidity
    00:00 -6°C° 0.1 mm 2 mps 745 mmHg 95%
    01:00 -6°C° 0 mm 2 mps 745 mmHg 95%
    02:00 -6°C° 0 mm 2 mps 745 mmHg 96%
    03:00 -5°C° 0 mm 2 mps 745 mmHg 96%
    04:00 -5°C° 0 mm 2 mps 745 mmHg 96%
    05:00 -6°C° 0 mm 3 mps 744 mmHg 96%
    06:00 -6°C° 0 mm 3 mps 744 mmHg 96%
    07:00 -6°C° 0 mm 3 mps 744 mmHg 95%
    08:00 -7°C° 0 mm 4 mps 743 mmHg 94%
    09:00 -7°C° 0 mm 4 mps 743 mmHg 92%
    10:00 -7°C° 0 mm 4 mps 743 mmHg 91%
    11:00 -7°C° 0 mm 4 mps 742 mmHg 90%
    12:00 -7°C° 0 mm 4 mps 742 mmHg 89%
    13:00 -5°C° 0.1 mm 4 mps 741 mmHg 88%
    14:00 -5°C° 0.1 mm 4 mps 741 mmHg 87%
    15:00 -4°C° 0.1 mm 4 mps 741 mmHg 86%
    16:00 -4°C° 0 mm 4 mps 741 mmHg 87%
    17:00 -4°C° 0 mm 4 mps 740 mmHg 87%
    18:00 -4°C° 0 mm 4 mps 740 mmHg 87%
    19:00 -5°C° 0.2 mm 5 mps 740 mmHg 88%
    20:00 -5°C° 0.2 mm 5 mps 739 mmHg 90%
    21:00 -5°C° 0.2 mm 5 mps 739 mmHg 91%
    22:00 -4°C° 0.2 mm 5 mps 739 mmHg 91%
    23:00 -4°C° 0.2 mm 5 mps 739 mmHg 91%

    Day after tomorrow, 21 February, Thursday

    Time Temperature Precipitation Wind Pressure Humidity
    00:00 -3°C° 0.2 mm 4 mps 738 mmHg 91%
    01:00 -2°C° 0.2 mm 4 mps 738 mmHg 91%
    02:00 -2°C° 0.2 mm 4 mps 738 mmHg 91%
    03:00 -2°C° 0.2 mm 4 mps 738 mmHg 90%
    04:00 -2°C° 0.1 mm 4 mps 738 mmHg 90%
    05:00 -2°C° 0.1 mm 4 mps 738 mmHg 91%
    06:00 -2°C° 0.1 mm 4 mps 738 mmHg 91%
    07:00 -2°C° 0.1 mm 4 mps 738 mmHg 91%
    08:00 -2°C° 0.1 mm 4 mps 738 mmHg 91%
    09:00 -2°C° 0.1 mm 4 mps 738 mmHg 91%
    10:00 -1°C° 0.2 mm 4 mps 738 mmHg 91%
    11:00 -1°C° 0.2 mm 4 mps 738 mmHg 92%
    12:00 -1°C° 0.2 mm 4 mps 738 mmHg 92%
    13:00 -1°C° 0.2 mm 4 mps 738 mmHg 92%
    14:00 -1°C° 0.2 mm 4 mps 738 mmHg 92%
    15:00 0°C° 0.2 mm 3 mps 738 mmHg 92%
    16:00 0°C° 0.2 mm 3 mps 738 mmHg 92%
    17:00 -1°C° 0.2 mm 3 mps 738 mmHg 92%
    18:00 -1°C° 0.2 mm 3 mps 738 mmHg 92%
    19:00 -1°C° 0.2 mm 3 mps 738 mmHg 93%
    20:00 -1°C° 0.2 mm 3 mps 737 mmHg 94%
    21:00 -1°C° 0.2 mm 3 mps 737 mmHg 95%
    22:00 -1°C° 0.1 mm 3 mps 737 mmHg 95%
    23:00 -1°C° 0.1 mm 2 mps 737 mmHg 95%

    22 February, Friday

    Time Temperature Precipitation Wind Pressure Humidity
    00:00 -1°C° 0.1 mm 2 mps 737 mmHg 96%
    01:00 -1°C° 0.3 mm 2 mps 737 mmHg 96%
    02:00 -1°C° 0.3 mm 2 mps 737 mmHg 96%
    03:00 -2°C° 0.3 mm 2 mps 737 mmHg 96%
    04:00 -2°C° 0.3 mm 2 mps 737 mmHg 96%
    05:00 -2°C° 0.3 mm 2 mps 737 mmHg 97%
    06:00 -3°C° 0.3 mm 2 mps 737 mmHg 97%
    07:00 -1°C° 0.1 mm 1 mps 737 mmHg 97%
    08:00 -1°C° 0.1 mm 1 mps 738 mmHg 96%
    09:00 -1°C° 0.1 mm 1 mps 738 mmHg 96%
    10:00 -1°C° 0.1 mm 1 mps 738 mmHg 96%
    11:00 -2°C° 0.1 mm 2 mps 738 mmHg 96%
    12:00 -2°C° 0.1 mm 2 mps 738 mmHg 96%
    13:00 -2°C° 0.6 mm 2 mps 739 mmHg 96%
    14:00 -2°C° 0.6 mm 3 mps 739 mmHg 96%
    15:00 -2°C° 0.6 mm 3 mps 740 mmHg 96%
    16:00 -2°C° 0.5 mm 3 mps 740 mmHg 95%
    17:00 -2°C° 0.5 mm 3 mps 741 mmHg 95%
    18:00 -2°C° 0.5 mm 3 mps 741 mmHg 95%
    19:00 -5°C° 0.2 mm 4 mps 742 mmHg 93%
    20:00 -7°C° 0.2 mm 4 mps 743 mmHg 92%
    21:00 -10°C° 0.2 mm 5 mps 743 mmHg 90%
    22:00 -10°C° 0.2 mm 5 mps 744 mmHg 91%
    23:00 -9°C° 0.2 mm 4 mps 745 mmHg 92%

    23 February, Saturday

    Time Temperature Precipitation Wind Pressure Humidity
    00:00 -9°C° 0.2 mm 4 mps 745 mmHg 93%
    01:00 -10°C° 0.1 mm 4 mps 746 mmHg 92%
    02:00 -11°C° 0.1 mm 5 mps 747 mmHg 91%
    03:00 -11°C° 0.1 mm 5 mps 748 mmHg 91%
    04:00 -12°C° 0.2 mm 5 mps 748 mmHg 91%
    05:00 -12°C° 0.2 mm 4 mps 749 mmHg 91%
    06:00 -12°C° 0.2 mm 4 mps 750 mmHg 92%
    07:00 -12°C° 0.1 mm 4 mps 751 mmHg 92%
    08:00 -12°C° 0.1 mm 4 mps 751 mmHg 91%
    09:00 -12°C° 0.1 mm 4 mps 752 mmHg 91%
    10:00 -12°C° 0 mm 4 mps 753 mmHg 91%
    11:00 -12°C° 0 mm 4 mps 753 mmHg 91%
    12:00 -12°C° 0 mm 3 mps 754 mmHg 90%
    13:00 -12°C° 0 mm 3 mps 754 mmHg 91%
    14:00 -12°C° 0 mm 3 mps 755 mmHg 91%
    15:00 -12°C° 0 mm 3 mps 755 mmHg 91%
    16:00 -10°C° 0 mm 2 mps 756 mmHg 92%
    17:00 -12°C° 0 mm 2 mps 756 mmHg 93%
    18:00 -12°C° 0 mm 2 mps 757 mmHg 94%
    19:00 -13°C° 0 mm 2 mps 757 mmHg 94%
    20:00 -11°C° 0 mm 1 mps 757 mmHg 95%
    21:00 -11°C° 0 mm 1 mps 758 mmHg 95%
    22:00 -12°C° 0 mm 1 mps 758 mmHg 96%
    23:00 -13°C° 0 mm 1 mps 758 mmHg 96%

    24 February, Sunday

    Time Temperature Precipitation Wind Pressure Humidity
    00:00 -14°C° 0 mm 1 mps 759 mmHg 96%
    01:00 -14°C° 0 mm 1 mps 759 mmHg 96%
    02:00 -14°C° 0 mm 1 mps 759 mmHg 96%
    03:00 -14°C° 0 mm 1 mps 760 mmHg 96%
    04:00 -14°C° 0 mm 1 mps 760 mmHg 96%
    05:00 -14°C° 0 mm 1 mps 760 mmHg 96%
    06:00 -14°C° 0 mm 1 mps 761 mmHg 96%
    07:00 -13°C° 0 mm 1 mps 761 mmHg 95%
    08:00 -13°C° 0 mm 1 mps 761 mmHg 94%
    09:00 -12°C° 0 mm 1 mps 762 mmHg 93%
    10:00 -11°C° 0 mm 1 mps 762 mmHg 91%
    11:00 -10°C° 0 mm 1 mps 762 mmHg 89%
    12:00 -9°C° 0 mm 1 mps 762 mmHg 87%
    13:00 -9°C° 0 mm 1 mps 762 mmHg 87%
    14:00 -9°C° 0 mm 2 mps 762 mmHg 87%
    15:00 -9°C° 0 mm 2 mps 762 mmHg 88%
    16:00 -9°C° 0 mm 1 mps 762 mmHg 90%
    17:00 -10°C° 0 mm 1 mps 762 mmHg 92%
    18:00 -11°C° 0 mm 1 mps 762 mmHg 94%
    19:00 -12°C° 0 mm 1 mps 762 mmHg 94%
    20:00 -13°C° 0 mm 1 mps 762 mmHg 95%
    21:00 -13°C° 0 mm 1 mps 763 mmHg 95%
    22:00 -14°C° 0 mm 1 mps 762 mmHg 95%
    23:00 -14°C° 0 mm 1 mps 762 mmHg 94%
    Show more